Weather History for Allentown, PA

Change the Weather History Date:

Saturday, October 5, 2013

  Actual Average (KABE) Record (KABE)
Temperature  
Mean Temperature 73 °F 56 °F  
Max Temperature 84 °F 67 °F 92 °F (1941)
Min Temperature 62 °F 45 °F 31 °F (1996)
Degree Days  
Heating Degree Days 0 9  
Month to date heating degree days 43  
Since 1 July heating degree days 158  
Cooling Degree Days 8 0  
Month to date cooling degree days 3  
Year to date cooling degree days 753  
Growing Degree Days 23 (Base 50)    
Moisture  
Dew Point 63 °F    
Average Humidity 72    
Maximum Humidity 94    
Minimum Humidity 45    
Precipitation  
Precipitation 0.06 in 0.14 in 2.76 in (1995)
Month to date precipitation 0.70  
Year to date precipitation 35.09  
Snow  
Snow 0.00 in 0.00 in 0.00 in ()
Month to date snowfall 0.0  
Since 1 July snowfall 0.0  
Since 1 September snowfall 0.0  
Snow Depth -    
Sea Level Pressure  
Sea Level Pressure 30.06 in    
Wind  
Wind Speed 2 mph (SSE)    
Max Wind Speed 12 mph    
Max Gust Speed -    
Visibility 8 miles    
Events Rain    
T = Trace of Precipitation, MM = Missing Value Source: NWS Daily Summary

Daily Weather History Graph

Daily Weather History Graph

Search for Another Location

Airport:

Trip Planner

Search our weather history database for the weather conditions in past years. The results will help you decide how hot, cold, wet, or windy it might be!

Date:

Astronomy

Oct. 05, 2013 Rise Set
Actual Time 7:02 AM EDT 6:37 PM EDT
Civil Twilight 6:35 AM EDT 7:04 PM EDT
Nautical Twilight 6:03 AM EDT 7:35 PM EDT
Astronomical Twilight 5:31 AM EDT 8:07 PM EDT
Moon 7:39 AM EDT (10/5) 6:54 PM EDT (10/5)
Length of Visible Light 12h 28m
Length of Day
11h 34m
New Moon, 0% of the Moon is Illuminated
Oct 5
New Moon
Oct 11
First Quarter
Oct 18
Full
Oct 26
Last Quarter
Nov 3
New

Hourly Weather History & Observations

Time (EDT) Temp. Heat Index Dew Point Humidity Pressure Visibility Wind Dir Wind Speed Gust Speed Precip Events Conditions
12:15 AM 68.0 °F - 62.6 °F 83% 30.05 in 10.0 mi SW 5.8 mph - N/A   Mostly Cloudy
12:35 AM 69.8 °F - 62.6 °F 78% 30.06 in 10.0 mi Calm Calm - N/A   Mostly Cloudy
12:55 AM 69.8 °F - 62.6 °F 78% 30.05 in 10.0 mi Calm Calm - N/A   Mostly Cloudy
1:15 AM 69.8 °F - 62.6 °F 78% 30.05 in 10.0 mi South 3.5 mph - N/A   Mostly Cloudy
1:35 AM 69.8 °F - 64.4 °F 83% 30.05 in 10.0 mi Calm Calm - N/A   Mostly Cloudy
1:55 AM 69.8 °F - 64.4 °F 83% 30.05 in 10.0 mi South 4.6 mph - N/A   Mostly Cloudy
2:15 AM 69.8 °F - 62.6 °F 78% 30.05 in 10.0 mi Calm Calm - N/A   Overcast
2:35 AM 69.8 °F - 62.6 °F 78% 30.05 in 10.0 mi Calm Calm - N/A   Scattered Clouds
2:55 AM 68.0 °F - 62.6 °F 83% 30.05 in 7.0 mi Calm Calm - N/A   Clear
3:15 AM 68.0 °F - 62.6 °F 83% 30.05 in 7.0 mi Calm Calm - N/A   Clear
3:35 AM 68.0 °F - 62.6 °F 83% 30.05 in 7.0 mi Calm Calm - N/A   Clear
3:55 AM 66.2 °F - 62.6 °F 88% 30.05 in 7.0 mi Calm Calm - N/A   Clear
4:15 AM 66.2 °F - 62.6 °F 88% 30.05 in 7.0 mi Calm Calm - N/A   Clear
4:35 AM 64.4 °F - 62.6 °F 94% 30.06 in 5.0 mi Calm Calm - N/A   Scattered Clouds
4:55 AM 64.4 °F - 62.6 °F 94% 30.06 in 5.0 mi Calm Calm - N/A   Clear
5:15 AM 64.4 °F - 62.6 °F 94% 30.07 in 4.0 mi Calm Calm - N/A   Scattered Clouds
5:35 AM 64.4 °F - 60.8 °F 88% 30.07 in 3.0 mi Calm Calm - N/A   Scattered Clouds
5:55 AM 64.4 °F - 62.6 °F 94% 30.08 in 5.0 mi Calm Calm - N/A   Overcast
6:15 AM 64.4 °F - 62.6 °F 94% 30.08 in 5.0 mi Calm Calm - N/A   Mostly Cloudy
6:35 AM 64.4 °F - 62.6 °F 94% 30.08 in 5.0 mi Calm Calm - N/A   Scattered Clouds
6:55 AM 64.4 °F - 62.6 °F 94% 30.08 in 3.0 mi Calm Calm - N/A   Scattered Clouds
7:15 AM 64.4 °F - 62.6 °F 94% 30.08 in 2.0 mi Calm Calm - N/A   Scattered Clouds
7:35 AM 62.6 °F - 60.8 °F 94% 30.08 in 2.0 mi Calm Calm - N/A   Clear
7:55 AM 64.4 °F - 62.6 °F 94% 30.09 in 2.5 mi Calm Calm - N/A   Clear
8:15 AM 64.4 °F - 62.6 °F 94% 30.11 in 2.0 mi Calm Calm - N/A   Clear
8:35 AM 66.2 °F - 62.6 °F 88% 30.11 in 5.0 mi Calm Calm - N/A   Scattered Clouds
8:55 AM 68.0 °F - 62.6 °F 83% 30.11 in 7.0 mi Calm Calm - N/A   Scattered Clouds
9:15 AM 69.8 °F - 62.6 °F 78% 30.11 in 5.0 mi Calm Calm - N/A   Haze
9:35 AM 69.8 °F - 64.4 °F 83% 30.12 in 5.0 mi Calm Calm - N/A   Haze
9:55 AM 71.6 °F - 64.4 °F 78% 30.11 in 7.0 mi Calm Calm - N/A   Clear
10:15 AM 71.6 °F - 64.4 °F 78% 30.12 in 10.0 mi Calm Calm - N/A   Clear
10:35 AM 73.4 °F - 64.4 °F 73% 30.11 in 10.0 mi NNW 3.5 mph - N/A   Clear
10:55 AM 75.2 °F - 64.4 °F 69% 30.11 in 10.0 mi North 4.6 mph - N/A   Clear
11:15 AM 77.0 °F - 62.6 °F 61% 30.10 in 10.0 mi Calm Calm - N/A   Clear
11:35 AM 77.0 °F - 62.6 °F 61% 30.09 in 10.0 mi Calm Calm - N/A   Clear
11:55 AM 78.8 °F - 62.6 °F 57% 30.09 in 10.0 mi East 3.5 mph - N/A   Clear
12:15 PM 78.8 °F - 60.8 °F 54% 30.08 in 10.0 mi Calm Calm - N/A   Clear
12:35 PM 78.8 °F - 60.8 °F 54% 30.08 in 10.0 mi Calm Calm - N/A   Clear
12:55 PM 80.6 °F 81.5 °F 60.8 °F 51% 30.07 in 10.0 mi Calm Calm - N/A   Clear
1:15 PM 80.6 °F 81.1 °F 59.0 °F 48% 30.06 in 10.0 mi Calm Calm - N/A   Clear
1:35 PM 82.4 °F 82.5 °F 59.0 °F 45% 30.05 in 10.0 mi South 3.5 mph - N/A   Scattered Clouds
1:55 PM 82.4 °F 82.5 °F 59.0 °F 45% 30.04 in 10.0 mi WSW 4.6 mph - N/A   Scattered Clouds
2:15 PM 82.4 °F 82.5 °F 59.0 °F 45% 30.04 in 10.0 mi Calm Calm - N/A   Scattered Clouds
2:35 PM 82.4 °F 82.5 °F 59.0 °F 45% 30.04 in 10.0 mi Calm Calm - N/A   Mostly Cloudy
2:55 PM 82.4 °F 82.5 °F 59.0 °F 45% 30.04 in 10.0 mi WSW 3.5 mph - N/A   Mostly Cloudy
3:15 PM 84.2 °F 84.4 °F 60.8 °F 45% 30.03 in 10.0 mi SW 6.9 mph - N/A   Scattered Clouds
3:35 PM 84.2 °F 84.4 °F 60.8 °F 45% 30.03 in 10.0 mi South 6.9 mph - N/A   Scattered Clouds
3:55 PM 82.4 °F 82.9 °F 60.8 °F 48% 30.03 in 10.0 mi SW 4.6 mph - N/A   Scattered Clouds
4:15 PM 82.4 °F 82.5 °F 59.0 °F 45% 30.02 in 10.0 mi South 5.8 mph - N/A   Clear
4:35 PM 82.4 °F 82.9 °F 60.8 °F 48% 30.02 in 10.0 mi SW 3.5 mph - N/A   Scattered Clouds
4:55 PM 82.4 °F 82.9 °F 60.8 °F 48% 30.02 in 10.0 mi SSW 4.6 mph - N/A   Scattered Clouds
5:15 PM 82.4 °F 82.9 °F 60.8 °F 48% 30.02 in 10.0 mi South 3.5 mph - N/A   Scattered Clouds
5:35 PM 80.6 °F 81.8 °F 62.6 °F 54% 30.02 in 10.0 mi SSW 4.6 mph - N/A   Scattered Clouds
5:55 PM 80.6 °F 81.8 °F 62.6 °F 54% 30.02 in 10.0 mi Calm Calm - N/A   Scattered Clouds
6:15 PM 78.8 °F - 62.6 °F 57% 30.02 in 10.0 mi SE 3.5 mph - N/A   Scattered Clouds
6:35 PM 78.8 °F - 62.6 °F 57% 30.03 in 10.0 mi Calm Calm - N/A   Mostly Cloudy
6:55 PM 77.0 °F - 62.6 °F 61% 30.03 in 10.0 mi South 3.5 mph - N/A   Mostly Cloudy
7:15 PM 77.0 °F - 62.6 °F 61% 30.03 in 10.0 mi Calm Calm - N/A   Scattered Clouds
7:35 PM 77.0 °F - 64.4 °F 65% 30.03 in 10.0 mi Calm Calm - N/A   Scattered Clouds
7:55 PM 75.2 °F - 62.6 °F 65% 30.03 in 10.0 mi Calm Calm - N/A   Scattered Clouds
8:15 PM 73.4 °F - 64.4 °F 73% 30.04 in 10.0 mi Calm Calm - N/A   Scattered Clouds
8:35 PM 75.2 °F - 62.6 °F 65% 30.04 in 10.0 mi ESE 4.6 mph - N/A   Mostly Cloudy
8:55 PM 75.2 °F - 64.4 °F 69% 30.04 in 10.0 mi SE 5.8 mph - N/A   Scattered Clouds
9:15 PM 73.4 °F - 64.4 °F 73% 30.07 in 10.0 mi NNW 11.5 mph - N/A   Mostly Cloudy
9:35 PM 71.6 °F - 68.0 °F 88% 30.06 in 4.0 mi East 4.6 mph - 0.05 in Rain Heavy Rain
9:55 PM 71.6 °F - 68.0 °F 88% 30.06 in 7.0 mi ESE 5.8 mph - 0.05 in   Scattered Clouds
10:15 PM 71.6 °F - 68.0 °F 88% 30.06 in 10.0 mi SE 4.6 mph - N/A   Scattered Clouds
10:35 PM 71.6 °F - 66.2 °F 83% 30.07 in 7.0 mi ESE 3.5 mph - N/A   Scattered Clouds
10:55 PM 71.6 °F - 66.2 °F 83% 30.07 in 7.0 mi SE 4.6 mph - N/A   Mostly Cloudy
11:15 PM 71.6 °F - 66.2 °F 83% 30.07 in 7.0 mi East 4.6 mph - N/A   Mostly Cloudy
11:35 PM 71.6 °F - 66.2 °F 83% 30.07 in 7.0 mi Calm Calm - N/A   Mostly Cloudy
11:55 PM 69.8 °F - 66.2 °F 88% 30.07 in 5.0 mi ESE 5.8 mph - 0.01 in Rain Rain